Hourly Data Report for August 22, 2019

QUALICUM BEACH AIRPORT
BRITISH COLUMBIA
Current Station Operator: ECCC - MSC

49°20'14.000" N
124°23'38.000" W
58.20 m
1026562
71766
VOQ

Download Data

Hourly Data (August 2019)
Hourly Data Report for August 22, 2019
TIME
LST
Temp Definition
°C
Dew Point Definition
°C
Rel Hum Definition
%
Precip. Amount Definition
mm

Wind Dir Definition
10's deg

Wind Spd Definition
km/h
Visibility Definition
km
Stn Press Definition
kPa
Hmdx Definition


Wind Chill Definition


Weather Definition


00:00 14.7 8.5 67 0.0 30 13   100.98     LegendNANA
01:00 14.1 8.1 67 0.0 28 3   101.00     LegendNANA
02:00 13.9 7.9 67 0.0 27 4   101.04     LegendNANA
03:00 14.6 6.9 60 0.0 26 6   101.03     LegendNANA
04:00 12.9 7.1 68 0.0 25 6   101.03     LegendNANA
05:00 12.7 7.1 69 0.0 28 5   101.06     LegendNANA
06:00 12.1 7.3 73 0.0 24 5   101.12     LegendNANA
07:00 14.7 7.5 62 0.0 29 9   101.18     LegendNANA
08:00 15.7 9.0 64 0.0 31 12   101.21     LegendNANA
09:00 16.3 9.0 62 0.0 34 12   101.20     LegendNANA
10:00 16.6 8.9 60 0.0 33 12   101.23     LegendNANA
11:00 17.9 9.9 59 0.0 35 7   101.23     LegendNANA
12:00 17.2 9.3 59 0.0 30 14   101.22     LegendNANA
13:00 19.3 7.8 47 0.0 34 10   101.16     LegendNANA
14:00 20.0 7.4 44 0.0 1 6   101.13     LegendNANA
15:00 20.7 7.4 42 0.0 1 6   101.06     LegendNANA
16:00 20.9 5.5 36 0.0 36 4   101.01     LegendNANA
17:00 21.4 5.6 36 0.0 1 4   100.99     LegendNANA
18:00 19.6 6.0 41 0.0 5 5   100.97     LegendNANA
19:00 18.3 8.7 53 0.0 16 1   100.96     LegendNANA
20:00 15.9 8.5 61 0.0 0 1   101.01     LegendNANA
21:00 14.3 8.4 68 0.0 0 1   101.00     LegendNANA
22:00 14.1 8.3 68 0.0 0 1   100.97     LegendNANA
23:00 14.4 8.9 69 0.0 27 1   100.91     LegendNANA

Notes on Data Quality.

Legend

  • E = Estimated
  • M = Missing
  • NA = Not Available*
  • [empty] = Indicates an unobserved value
Date modified: